Regional Weather Roundup
Issued by NWS

Home | Current Version | Previous Version | Text Only | Print | Product List | Glossary Off
Versions: 1 2 3 4 5 6 7 8 9 10 11 12 13 14 15 16 17 18 19 20 21 22 23 24 25 26 27 28 29 30 31 32 33 34 35 36 37 38 39 40 41 42 43 44 45 46 47 48 49 50

980
ASUS43 KOAX 191610
RWRNE

WEATHER ROUNDUP FOR NEBRASKA
NATIONAL WEATHER SERVICE OMAHA NE
1100 AM CDT SAT AUG 19 2017

NOTES: SATELLITE DATA IS BEING USED TO AUGMENT CLOUD COVER ABOVE
       12000 FEET.
       "FAIR" INDICATES FEW OR NO CLOUDS BELOW 12,000 FEET WITH NO
       SIGNIFICANT WEATHER AND/OR OBSTRUCTIONS TO VISIBILITY.


NEZ001>004-019>022-054>056-191700-
NEBRASKA PANHANDLE

CITY           SKY/WX    TMP DP  RH WIND       PRES   REMARKS
SCOTTSBLUFF    SUNNY     80  47  31 NW8       29.98S
ALLIANCE       SUNNY     81  50  33 W13       29.95F
CHADRON        SUNNY     77  49  37 SW6       29.91S
GORDON         FAIR      79  55  43 SW10      29.92S
KIMBALL        SUNNY     81  50  33 W13       30.05S
SIDNEY         SUNNY     84  53  34 W12       30.02S
$$

NEZ057>060-069>072-079>082-191700-
SOUTHWEST NEBRASKA

CITY           SKY/WX    TMP DP  RH WIND       PRES   REMARKS
NORTH PLATTE   SUNNY     78  64  61 S7        29.97F
IMPERIAL       SUNNY     80  62  54 S8        29.99F
LEXINGTON      SUNNY     78  67  68 S9        29.98S
MCCOOK         SUNNY     83  67  58 S12       29.97F
OGALLALA       SUNNY     78  63  59 S10       29.98S
$$

NEZ005>010-023>029-035>040-094-191700-
NORTH CENTRAL NEBRASKA

CITY           SKY/WX    TMP DP  RH WIND       PRES   REMARKS
VALENTINE      SUNNY     81  53  37 S13       29.90F
AINSWORTH      SUNNY     76  60  57 S17       29.94S
BROKEN BOW     SUNNY     79  62  56 SE12      29.96F
O`NEILL        SUNNY     75  61  60 S8        29.96F
ORD            SUNNY     76  60  57 SE14      29.95F
THEDFORD       SUNNY     80  57  45 S15       29.96F
$$

NEZ041-046>049-061>064-073>077-083>087-191700-
SOUTH CENTRAL NEBRASKA

CITY           SKY/WX    TMP DP  RH WIND       PRES   REMARKS
GRAND ISLAND   SUNNY     75  66  73 SE10      29.99F
AURORA         SUNNY     73  65  75 SE6       29.99S
HASTINGS       SUNNY     78  65  63 SE10      30.00S
HEBRON         SUNNY     79  66  64 CALM      29.99S
HOLDREGE       SUNNY     77  65  67 S9        29.98F
KEARNEY        SUNNY     79  67  66 SE12      29.98F
YORK           SUNNY     73  63  68 E6        29.99F
$$

NEZ011>018-030>034-042>045-191700-
NORTHEAST NEBRASKA

CITY           SKY/WX    TMP DP  RH WIND       PRES   REMARKS
NORFOLK        SUNNY     73  62  68 SE7       29.97S
ALBION         SUNNY     73  63  71 SE8       29.99S
BLAIR          SUNNY     73  64  72 CALM      29.98F
COLUMBUS       SUNNY     73  64  73 VRB5      30.00R
FREMONT        SUNNY     73  62  67 SE3       29.99F
TEKAMAH        SUNNY     71  63  75 VRB3      29.98S
WAYNE          SUNNY     72  68  87 SE7       29.98S
$$

NEZ050>053-065>068-078-088>093-191700-
SOUTHEAST NEBRASKA

CITY           SKY/WX    TMP DP  RH WIND       PRES   REMARKS
LINCOLN        SUNNY     76  60  57 NE6       29.99S
OMAHA EPPLEY   SUNNY     75  62  64 N5        29.98S
BEATRICE       SUNNY     79  62  55 SE7       29.98F
FALLS CITY     SUNNY     78  62  57 CALM      29.98R
NEBRASKA CITY  SUNNY     75  62  62 CALM      29.99S
PLATTSMOUTH    SUNNY     74  63  68 CALM      29.99S
$$

NEZ044-045-051>053-067-191700-
OMAHA AREA

CITY           SKY/WX    TMP DP  RH WIND       PRES   REMARKS
OMAHA EPPLEY   SUNNY     75  62  64 N5        29.98S
BLAIR          SUNNY     73  64  72 CALM      29.98F
FREMONT        SUNNY     73  62  67 SE3       29.99F
MILLARD        SUNNY     77  62  59 CALM      29.98F
OFFUTT AFB     SUNNY     75  61  61 CALM      29.98S
PLATTSMOUTH    SUNNY     74  63  68 CALM      29.99S
WAHOO          FAIR      73  64  72 E3        29.99S
$$




USA.gov is the U.S. government's official web portal to all federal, state and local government web resources and services.